sat.trackr.live / text

‹ back to catalog

STARLINK-31062

NORAD 58590 · 2023-200B

PAYLOAD ACTIVE UNKNOWN

§ Identity

Operator
Country
US
Launch date
2023-12-19
Launch site
AFETR
Launch vehicle
Mass (kg)
RCS (m²)

Purposes: comms

External: N2YO · Heavens-Above · Gunter

§ Orbital elements

Epoch: 2026-09-19T02:42:13.511232Z

Period
94.27 min
Inclination
43.0043°
Eccentricity
0.0002057
Mean motion
15.27575344 rev/d
Perigee alt
481.7 km
Apogee alt
484.5 km
Semi-major
6,861.2 km
B*
9.6930e-6
RAAN
159.8097°
Arg perigee
266.0821°
Mean anomaly
93.9795°
Rev number
15,315

§ Raw data

STARLINK-310621 58590U 23200B   26262.11265638  .00000004  00000+0  96930-5 0  99992 58590  43.0043 159.8097 0002057 266.0821  93.9795 15.27575344153151

JSON: /api/v1/satellites/58590 · /tle

For live sub-satellite position, see the globe view (requires WebGL).

§ Visibility from observer

Set your observer location to see the next 7 days of passes ≥ 10°. The values pass through the URL so the page stays shareable.

No JS? Fill the form by hand. The geolocation button needs JavaScript.